Location: Zerbst
(51.9650°N, 12.0766°E)
Time: 11:41:46
(UTC+02:00)

ISS - Pass Details

Date: 22 May 2017
Orbit: 402 x 409 km, 51.6° (Epoch: 24 May)

Event Time Altitude Azimuth Distance (km) Brightness Sun altitude
Exits shadow 00:34:11 29° 106° (ESE) 785 -2.6 -17.3°
Drops below altitude 10° 00:36:07 10° 84° (E) 1,468 -1.0 -17.3°
Sets 00:38:15 0° 78° (ENE) 2,329 0.1 -17.4°
